Flag for Botswana Weather past 2 weeks in Molepolole, Botswana

Now
61 °F

Partly sunny.


Feels Like: 61 °F
Forecast: 53 / 78 °F
Wind: 5 mph from Northeast

Location: Seretse Khama International Airport


UV Index: 7 (High)

Visibility: N/A


Pressure: 30.27 "Hg

Humidity: 94%

Dew point: 59 °F

Location of MolepololeLocation

Historic Weather in Molepolole

°F

Molepolole temperature yesterday

Maximum temperature yesterday: 68 °F (at 2:00 PM)
Minimum temperature yesterday: 57 °F (at 4:00 AM)
Average temperature yesterday: 62 °F

Past Weeks' High & Low Weather Summary

 TemperatureHumidityPressure
High84 °F (Apr 3, 1:00 PM)100% (Apr 5, 1:00 AM)30.42 "Hg (Apr 5, 1:00 AM)
Low50 °F (Apr 18, 7:00 AM)16% (Apr 3, 3:00 PM)29.95 "Hg (Apr 13, 6:00 PM)
Average66 °F67%30.23 "Hg
* Reported Apr 3 8:00 AM — Apr 18 8:00 AM, Molepolole, Weather by CustomWeather, © 2014

Note: Actual official high and low records may vary slightly from our data, if they occured in-between our weather recording intervals... More about our weather records

Advertising

Historic Weather Conditions — Data for Previous 24 hours

 ConditionsComfort  
Time TempWeatherWind HumidityBarometerVisibility
8:00 AM
Apr 18
54 °FFog.2 mph100%30.27 "Hg2 mi
7:00 AM50 °FFog.3 mph94%30.24 "Hg1 mi
6:00 AM52 °FClear.3 mph100%30.21 "Hg6 mi
5:00 AM54 °FFog.5 mph94%30.21 "Hg6 mi
4:00 AM54 °FClear.6 mph94%30.18 "Hg10 mi
3:00 AM54 °FFog.6 mph100%30.18 "Hg4 mi
2:00 AM55 °FClear.2 mph94%30.21 "Hg10 mi
1:00 AM57 °FClear.1 mph94%30.21 "Hg10 mi
12:00 AM59 °FPassing clouds.6 mph94%30.21 "HgN/A
11:00 PM
Apr 17
57 °FClear.5 mph94%30.24 "Hg10 mi
10:00 PM59 °FPassing clouds.3 mph88%30.24 "HgN/A
9:00 PM61 °FPassing clouds.5 mph83%30.24 "HgN/A
8:00 PM64 °FPassing clouds.7 mph78%30.24 "HgN/A
7:00 PM63 °FPartly cloudy.6 mph77%30.21 "HgN/A
6:00 PM66 °FPartly cloudy.3 mph68%30.18 "HgN/A
5:00 PM68 °FPassing clouds.5 mph64%30.18 "HgN/A
4:00 PM68 °FPartly sunny.6 mph64%30.18 "HgN/A
3:00 PM68 °FPartly sunny.7 mph64%30.18 "HgN/A
2:00 PM68 °FOvercast.7 mph69%30.18 "HgN/A
1:00 PM66 °FOvercast.6 mph68%30.24 "HgN/A
12:00 PM66 °FOvercast.7 mph68%29.95 "HgN/A
11:00 AM64 °FOvercast.8 mph73%30.27 "HgN/A
10:00 AM63 °FOvercast.8 mph77%30.27 "HgN/A
Weather by CustomWeather, © 2014

See weather overview